Green Bay, WI

1:50 AM CDT on May 29, 2017 (GMT -0500)
Austin Straubel International

Weather History for KGRB - October, 2012

Change the Weather History Date:

Monday, October 22, 2012

  Actual Average Record
Temperature  
Mean Temperature 53 °F 45 °F  
Max Temperature 60 °F 54 °F 82 °F (1947)
Min Temperature 46 °F 36 °F 19 °F (1969)
Degree Days  
Heating Degree Days 12 20  
Month to date heating degree days 370 361  
Since 1 July heating degree days 612 631  
Cooling Degree Days 0 0  
Month to date cooling degree days 0 0  
Year to date cooling degree days 786 395  
Growing Degree Days 2 (Base 50)    
Moisture  
Dew Point 49 °F    
Average Humidity 83    
Maximum Humidity 93    
Minimum Humidity 72    
Precipitation  
Precipitation T in 0.08 in 0.96 in (1972)
Month to date precipitation 4.40 1.77  
Year to date precipitation 27.42 25.21  
Snow  
Snow 0.00 in 0.00 in T in (2003)
Month to date snowfall 0.0 0.1  
Since 1 July snowfall 0.0 0.1  
Since 1 September snowfall 0.0 0.1  
Snow Depth 0.00 in    
Sea Level Pressure  
Sea Level Pressure 29.98 in    
Wind  
Wind Speed 8 mph (NE)    
Max Wind Speed 18 mph    
Max Gust Speed 22 mph    
Visibility 6 miles    
Events      
T = Trace of Precipitation, MM = Missing Value Source: NWS Daily Summary

Daily Weather History Graph

Daily Weather History Graph

Search for Another Location

Airport or City:

Trip Planner

Search our weather history database for the weather conditions in past years. The results will help you decide how hot, cold, wet, or windy it might be!

Date:

Astronomy

Oct. 22, 2012 Rise Set
Actual Time 7:17 AM CDT 5:55 PM CDT
Civil Twilight 6:47 AM CDT 6:25 PM CDT
Nautical Twilight 6:13 AM CDT 6:59 PM CDT
Astronomical Twilight 5:39 AM CDT 7:32 PM CDT
Moon 2:18 PM CDT (10/22) No Moon Set
Length of Visible Light 11h 37m
Length of Day
10h 38m
First Quarter, 56% of the Moon is Illuminated
Oct 22
First Quarter
Oct 29
Full
Nov 6
Last Quarter
Nov 13
New
Nov 20
First Quarter

Hourly Weather History & Observations

Time (CDT) Temp. Dew Point Humidity Pressure Visibility Wind Dir Wind Speed Gust Speed Precip Events Conditions
12:53 AM 46.0 °F 43.0 °F 89% 29.99 in 7.0 mi Calm Calm - N/A   Clear
1:53 AM 46.9 °F 45.0 °F 93% 29.98 in 6.0 mi Calm Calm - N/A   Mostly Cloudy
2:53 AM 48.9 °F 46.0 °F 90% 29.98 in 6.0 mi North 5.8 mph - N/A   Overcast
3:53 AM 48.0 °F 46.0 °F 93% 29.97 in 6.0 mi NE 3.5 mph - N/A   Mostly Cloudy
4:53 AM 50.0 °F 46.0 °F 86% 29.96 in 6.0 mi Calm Calm - N/A   Overcast
5:53 AM 48.9 °F 46.0 °F 90% 29.97 in 7.0 mi Calm Calm - N/A   Mostly Cloudy
6:53 AM 46.9 °F 45.0 °F 93% 29.98 in 4.0 mi Calm Calm - N/A   Partly Cloudy
7:53 AM 46.9 °F 45.0 °F 93% 29.99 in 5.0 mi NE 5.8 mph - N/A   Haze
8:53 AM 51.8 °F 48.2 °F 88% 30.00 in 7.0 mi North 3.5 mph - N/A   Haze
9:53 AM 53.1 °F 48.9 °F 86% 30.00 in 5.0 mi NE 6.9 mph - N/A   Haze
10:53 AM 57.0 °F 50.0 °F 77% 30.00 in 8.0 mi NE 9.2 mph - N/A   Partly Cloudy
11:53 AM 57.9 °F 48.9 °F 72% 30.00 in 8.0 mi NE 10.4 mph - N/A   Scattered Clouds
12:53 PM 59.0 °F 50.0 °F 72% 29.99 in 9.0 mi NNE 11.5 mph - N/A   Overcast
1:53 PM 59.0 °F 50.0 °F 72% 29.98 in 10.0 mi NNE 12.7 mph - N/A   Mostly Cloudy
2:48 PM 57.2 °F 50.0 °F 77% 29.94 in 10.0 mi NE 16.1 mph - N/A   Overcast
2:53 PM 57.9 °F 50.0 °F 75% 29.95 in 10.0 mi NE 13.8 mph - N/A   Overcast
3:53 PM 57.0 °F 51.1 °F 81% 29.96 in 10.0 mi NE 12.7 mph - N/A   Overcast
4:53 PM 55.9 °F 51.1 °F 84% 29.96 in 9.0 mi NE 15.0 mph - N/A   Overcast
5:53 PM 54.0 °F 51.1 °F 90% 29.98 in 5.0 mi ENE 11.5 mph - N/A   Overcast
6:11 PM 53.6 °F 51.8 °F 94% 29.97 in 3.0 mi NE 10.4 mph - N/A   Overcast
6:20 PM 53.6 °F 51.8 °F 94% 29.96 in 2.5 mi NNE 10.4 mph - N/A   Overcast
6:28 PM 53.6 °F 51.8 °F 94% 29.96 in 2.5 mi NNE 10.4 mph - N/A   Overcast
6:50 PM 53.6 °F 51.8 °F 94% 29.96 in 2.5 mi NNE 10.4 mph - N/A   Overcast
6:53 PM 54.0 °F 52.0 °F 93% 29.97 in 3.0 mi NNE 10.4 mph - N/A   Overcast
7:53 PM 54.0 °F 52.0 °F 93% 29.97 in 5.0 mi NE 10.4 mph - N/A   Overcast
8:08 PM 53.6 °F 51.8 °F 94% 29.96 in 6.0 mi North 8.1 mph - N/A   Overcast
8:53 PM 54.0 °F 52.0 °F 93% 29.99 in 7.0 mi NE 8.1 mph - N/A   Overcast
9:53 PM 54.0 °F 51.1 °F 90% 29.98 in 8.0 mi NE 9.2 mph - N/A   Overcast
10:53 PM 54.0 °F 50.0 °F 86% 29.98 in 9.0 mi NNE 8.1 mph - N/A   Overcast
11:53 PM 53.1 °F 48.9 °F 86% 29.96 in 10.0 mi NE 15.0 mph - N/A   Overcast